"Pseudo-MPEC" for C15RM75

Created 2025 Oct 7 18:35:05 UT using Find_Orb

Click here for an explanation of pseudo-MPECs

 
 Astrometry: 
     C15RM75* C2025 10 02.27921500 18 16.463+29 39 46.84   ~A27Z 22.41GVNEOCPV00
     C15RM75  C2025 10 02.28480500 18 15.898+29 39 42.41   ~A27Z 22.25GVNEOCPV00
     C15RM75  C2025 10 02.29039900 18 15.350+29 39 38.23   ~A27Z 22.63GVNEOCPV00
     C15RM75  C2025 10 02.29600000 18 14.800+29 39 33.41   ~A27Z 22.15GVNEOCPV00
     C15RM75 KC2025 10 02.43574100 18 01.051+29 37 39.25   ~A2B5 22.20GVNEOCPV06
     C15RM75 KC2025 10 02.44209700 18 00.403+29 37 34.00   ~A2B5 22.60GVNEOCPV06
     C15RM75 KC2025 10 02.44845000 17 59.802+29 37 28.92   ~A2B5 22.99GVNEOCPV06
     C15RM75  C2025 10 03.41292000 16 28.220+29 24 20.00   ~A3Ao 22.7 RVNEOCP291
     C15RM75  C2025 10 03.42565000 16 26.950+29 24 09.10   ~A3Ao 22.5 RVNEOCP291
     C15RM75 KC2025 10 04.18604500 15 16.217+29 13 35.90   ~A45K 22.5 GWNEOCPH01
     C15RM75 KC2025 10 04.19387900 15 15.460+29 13 29.46   ~A45K 22.5 GWNEOCPH01
     C15RM75 KC2025 10 04.20159100 15 14.730+29 13 22.84   ~A45K 22.1 GWNEOCPH01
     C15RM75 KC2025 10 04.21003700 15 13.897+29 13 16.02   ~A45K 22.6 GWNEOCPH01
     C15RM75 KC2025 10 05.19087500 13 43.223+28 59 23.35   ~A55Z 22.1 GWNEOCPH01
     C15RM75 KC2025 10 05.19580100 13 42.762+28 59 19.20   ~A55Z 22.2 GWNEOCPH01
     C15RM75 KC2025 10 05.21054700 13 41.361+28 59 06.69   ~A55Z 21.9 GWNEOCPH01
     C15RM75 KC2025 10 05.21549000 13 40.908+28 59 02.46   ~A55Z 22.2 GWNEOCPH01

Station data:
(291) LPL/Spacewatch II  (N31.961669 W111.599905)  US/Arizona.  Observers J.
   V. Scotti, R. S. McMillan. 1.8-m f/2.7 reflector + CCD.
(H01) Magdalena Ridge Observatory, Socorro  (N33.984833 W107.189333)  US/New
   Mexico.  Observers W. H. Ryan, E. V. Ryan. Measurer W. H. Ryan. 2.4-m
   f/8.9 reflector + CCD.
(V00) Kitt Peak-Bok  (N31.963125 W111.600190)  US/Arizona. Measurers T.
   Beuden, V. F. Carvajal, D. Fay, J. B. Fazekas, D. C. Fuls, A. R. Gibbs, A.
   D. Grauer, H. Gröller, J. K. Hogan, R. A. Kowalski, S. M. Larson, G. J.
   Leonard, D. Rankin, R. L. Seaman, F. C. Shelly, K. W. Wierzchoś. 2.25-m
   reflector + 4x4K mosaic CCD.
(V06) Catalina Sky Survey-Kuiper  (N32.416871 W110.732550)  US/Arizona.
   Measurers T. Beuden, V. F. Carvajal, D. Fay, J. B. Fazekas, D. C. Fuls, A.
   R. Gibbs, A. D. Grauer, H. Gröller, J. K. Hogan, R. A. Kowalski, S. M.
   Larson, G. J. Leonard, D. Rankin, R. L. Seaman, F. C. Shelly, K. W.
   Wierzchoś. 1.55-m reflector + CCD.

Orbital elements:  C15RM75
   Perihelion 2025 Mar 17.206291 +/- 1.58 TT =  4:57:03.5 (JD 2460751.706291)
Epoch 2025 Oct  5.0 TT = JDT 2460953.5   Earth MOID: 0.1239   Ve: 0.0820
M  84.835961255 +/- 1.4             (J2000 ecliptic)             AutoNEOCP
n   0.420409347 +/- 0.00457         Peri.  324.018957 +/- 0.048
a   1.764768759 +/- 0.0128          Node   266.970097 +/- 0.7
e   0.56213998 +/- 0.01             Incl.   14.427392 +/- 0.14
P   2.344/856.292d         H 19.86  G  0.15   U  9.1
q 0.772721668 +/- 0.014    Q 2.756815850 +/- 0.0352
From 17 observations 2025 Oct. 2-5; mean residual 0".14
Residuals in arcseconds: 
251002 V00  .12+  .13-    251002 V06  .05-  .13+    251004 H01  .21-  .21+    
251002 V00  .04-  .06-    251003 291  .34+  .07-    251005 H01  .01-  .05-    
251002 V00  .03+  .27+    251003 291  .22-  .27-    251005 H01  .03+  .02-    
251002 V00  .08+  .03-    251004 H01  .06+  .13+    251005 H01  .10-  .01-    
251002 V06  .09+  .02-    251004 H01  .03-  .20+    251005 H01  .08+  .04-    
251002 V06  .28-  .03-    251004 H01  .09+  .00     

Ephemerides (geocentric):
Date (UTC) HH   RA             Dec           delta  r     elong  mag " sig PA
---- --------  ------------   ------------  ------ ------ -----  --- --------
2025 10 07 19  00 09 49.981   +28 21 28.29  1.2392 2.1865 155.1 22.7 1.57 149
2025 10 07 20  00 09 46.342   +28 20 51.08  1.2394 2.1867 155.1 22.7 1.61 149
2025 10 07 21  00 09 42.707   +28 20 13.85  1.2396 2.1870 155.1 22.7 1.64 149
2025 10 07 22  00 09 39.074   +28 19 36.61  1.2399 2.1872 155.1 22.7 1.68 149
2025 10 07 23  00 09 35.445   +28 18 59.34  1.2401 2.1874 155.1 22.7 1.71 149
2025 10 08 00  00 09 31.819   +28 18 22.05  1.2403 2.1876 155.1 22.7 1.75 148
2025 10 08 01  00 09 28.196   +28 17 44.73  1.2406 2.1879 155.1 22.7 1.79 148
2025 10 08 02  00 09 24.577   +28 17 07.40  1.2408 2.1881 155.1 22.7 1.82 148
2025 10 08 03  00 09 20.960   +28 16 30.05  1.2410 2.1883 155.1 22.7 1.86 148
2025 10 08 04  00 09 17.347   +28 15 52.67  1.2412 2.1885 155.1 22.7 1.90 148
2025 10 08 05  00 09 13.737   +28 15 15.28  1.2415 2.1887 155.1 22.7 1.94 148
2025 10 08 06  00 09 10.129   +28 14 37.86  1.2417 2.1890 155.1 22.7 1.97 148
2025 10 08 07  00 09 06.525   +28 14 00.42  1.2419 2.1892 155.1 22.7 2.01 148
2025 10 08 08  00 09 02.925   +28 13 22.96  1.2422 2.1894 155.1 22.7 2.05 148
2025 10 08 09  00 08 59.327   +28 12 45.48  1.2424 2.1896 155.1 22.7 2.09 148
2025 10 08 10  00 08 55.733   +28 12 07.99  1.2426 2.1898 155.1 22.7 2.13 148
2025 10 08 11  00 08 52.142   +28 11 30.47  1.2428 2.1901 155.1 22.7 2.17 147
2025 10 08 12  00 08 48.554   +28 10 52.93  1.2431 2.1903 155.2 22.7 2.21 147
2025 10 08 13  00 08 44.969   +28 10 15.37  1.2433 2.1905 155.2 22.7 2.25 147
2025 10 08 14  00 08 41.387   +28 09 37.79  1.2435 2.1907 155.2 22.7 2.29 147
2025 10 08 15  00 08 37.809   +28 09 00.19  1.2438 2.1909 155.2 22.7 2.34 147
2025 10 08 16  00 08 34.234   +28 08 22.57  1.2440 2.1912 155.2 22.7 2.38 147
2025 10 08 17  00 08 30.662   +28 07 44.93  1.2442 2.1914 155.2 22.7 2.42 147
2025 10 08 18  00 08 27.093   +28 07 07.27  1.2445 2.1916 155.2 22.7 2.46 147
2025 10 08 19  00 08 23.527   +28 06 29.59  1.2447 2.1918 155.2 22.7 2.50 147
2025 10 08 20  00 08 19.965   +28 05 51.89  1.2450 2.1921 155.2 22.7 2.55 147
2025 10 08 21  00 08 16.406   +28 05 14.17  1.2452 2.1923 155.2 22.7 2.59 147
2025 10 08 22  00 08 12.850   +28 04 36.43  1.2454 2.1925 155.2 22.7 2.64 146
2025 10 08 23  00 08 09.298   +28 03 58.67  1.2457 2.1927 155.2 22.7 2.68 146
2025 10 09 00  00 08 05.749   +28 03 20.90  1.2459 2.1929 155.2 22.7 2.72 146
2025 10 09 01  00 08 02.203   +28 02 43.10  1.2461 2.1932 155.2 22.7 2.77 146
2025 10 09 02  00 07 58.660   +28 02 05.28  1.2464 2.1934 155.2 22.7 2.81 146
2025 10 09 03  00 07 55.121   +28 01 27.45  1.2466 2.1936 155.2 22.7 2.86 146
2025 10 09 04  00 07 51.584   +28 00 49.60  1.2469 2.1938 155.2 22.7 2.91 146
2025 10 09 05  00 07 48.052   +28 00 11.73  1.2471 2.1940 155.2 22.7 2.95 146
2025 10 09 06  00 07 44.522   +27 59 33.83  1.2473 2.1943 155.1 22.7 3.00 146
2025 10 09 07  00 07 40.996   +27 58 55.93  1.2476 2.1945 155.1 22.7 3.05 146
2025 10 09 08  00 07 37.473   +27 58 18.00  1.2478 2.1947 155.1 22.7 3.09 146
2025 10 09 09  00 07 33.953   +27 57 40.05  1.2481 2.1949 155.1 22.7 3.14 146
2025 10 09 10  00 07 30.437   +27 57 02.09  1.2483 2.1951 155.1 22.7 3.19 145
2025 10 09 11  00 07 26.924   +27 56 24.10  1.2485 2.1954 155.1 22.7 3.24 145
2025 10 09 12  00 07 23.414   +27 55 46.10  1.2488 2.1956 155.1 22.7 3.29 145
2025 10 09 13  00 07 19.908   +27 55 08.08  1.2490 2.1958 155.1 22.7 3.34 145
2025 10 09 14  00 07 16.404   +27 54 30.04  1.2493 2.1960 155.1 22.7 3.38 145
2025 10 09 15  00 07 12.905   +27 53 51.99  1.2495 2.1962 155.1 22.7 3.43 145
2025 10 09 16  00 07 09.408   +27 53 13.91  1.2498 2.1964 155.1 22.7 3.48 145
2025 10 09 17  00 07 05.915   +27 52 35.82  1.2500 2.1967 155.1 22.7 3.53 145
2025 10 09 18  00 07 02.426   +27 51 57.71  1.2503 2.1969 155.1 22.7 3.59 145